Weather History for KHTL - March, 2014

Change the Weather History Date:

Saturday, March 15, 2014

  Actual Average Record
Temperature  
Mean Temperature 20 °F 28 °F  
Max Temperature 34 °F 39 °F 76 °F (1990)
Min Temperature 6 °F 18 °F -11 °F (1925)
Degree Days  
Heating Degree Days 45 37  
Month to date heating degree days 729 588  
Since 1 July heating degree days 7177 6460  
Cooling Degree Days 0 0  
Month to date cooling degree days 0 0  
Year to date cooling degree days 0 0  
Moisture  
Dew Point 14 °F    
Average Humidity 73    
Maximum Humidity 89    
Minimum Humidity 56    
Precipitation  
Precipitation T in 0.06 in 0.85 in (1959)
Month to date precipitation 0.25 0.82  
Year to date precipitation 3.05 3.54  
Snow  
Snow T in 0.20 in 4.10 in (1951)
Month to date snowfall 2.5 4.7  
Since 1 July snowfall 54.8 59.2  
Snow Depth 16.00 in    
Sea Level Pressure  
Sea Level Pressure 29.99 in    
Wind  
Wind Speed 14 mph (NW)    
Max Wind Speed 24 mph    
Max Gust Speed 31 mph    
Visibility 9 miles    
Events Snow    
T = Trace of Precipitation, MM = Missing Value Source: NWS Daily Summary

Daily Weather History Graph

Daily Weather History Graph

Search for Another Location

Airport or City:

Trip Planner

Search our weather history database for the weather conditions in past years. The results will help you decide how hot, cold, wet, or windy it might be!

Date:

Astronomy

Mar. 15, 2014 Rise Set
Actual Time 7:51 AM EDT 7:44 PM EDT
Civil Twilight 7:22 AM EDT 8:13 PM EDT
Nautical Twilight 6:48 AM EDT 8:47 PM EDT
Astronomical Twilight 6:14 AM EDT 9:22 PM EDT
Moon 7:02 PM EDT (3/15) 7:03 AM EDT (3/15)
Length of Visible Light 12h 51m
Length of Day
11h 53m
Waxing Gibbous, 99% of the Moon is Illuminated
Mar 15
Waxing Gibbous
Mar 16
Full
Mar 23
Last Quarter
Mar 30
New
Apr 7
First Quarter

Hourly Weather History & Observations

Time (EDT) Temp. Windchill Dew Point Humidity Pressure Visibility Wind Dir Wind Speed Gust Speed Precip Events Conditions
12:20 AM 33.1 °F 26.1 °F 32.0 °F 96% 29.61 in 2.0 mi West 8.1 mph - 0.00 in Snow Light Snow
12:30 AM 33.1 °F 26.1 °F 32.0 °F 96% 29.61 in 6.0 mi West 8.1 mph - 0.01 in Snow Light Snow
12:53 AM 34.0 °F 25.5 °F 32.0 °F 92% 29.64 in 6.0 mi WNW 11.5 mph 19.6 mph 0.01 in Snow Light Snow
1:01 AM 34.0 °F 25.5 °F 32.0 °F 92% 29.62 in 7.0 mi West 11.5 mph - 0.00 in Snow Light Snow
1:53 AM 34.0 °F 25.5 °F 30.9 °F 89% 29.66 in 6.0 mi WNW 11.5 mph - 0.00 in Snow Light Snow
2:45 AM 33.1 °F 22.2 °F 30.0 °F 89% 29.66 in 7.0 mi NW 17.3 mph - 0.00 in Snow Light Snow
2:53 AM 32.0 °F 21.2 °F 28.9 °F 88% 29.70 in 9.0 mi NW 16.1 mph 23.0 mph 0.00 in   Overcast
3:26 AM 30.9 °F 19.1 °F 27.0 °F 85% 29.68 in 10.0 mi NNW 18.4 mph 25.3 mph N/A   Overcast
3:53 AM 30.0 °F 19.1 °F 26.1 °F 85% 29.73 in 10.0 mi NNW 15.0 mph 21.9 mph N/A   Overcast
4:30 AM 28.0 °F 15.3 °F 21.9 °F 78% 29.71 in 10.0 mi NNW 18.4 mph 31.1 mph 0.00 in   Overcast
4:53 AM 26.1 °F 15.0 °F 19.9 °F 78% 29.77 in 10.0 mi NW 12.7 mph 29.9 mph 0.00 in   Overcast
5:13 AM 26.1 °F 14.5 °F 19.9 °F 78% 29.75 in 10.0 mi NW 13.8 mph 25.3 mph N/A   Overcast
5:33 AM 26.1 °F 14.0 °F 21.0 °F 81% 29.76 in 10.0 mi NW 15.0 mph - N/A   Overcast
5:53 AM 25.0 °F 12.2 °F 19.9 °F 81% 29.81 in 10.0 mi NW 16.1 mph 27.6 mph N/A   Overcast
6:19 AM 24.1 °F 10.6 °F 18.0 °F 77% 29.80 in 10.0 mi NW 17.3 mph 28.8 mph 0.00 in   Overcast
6:53 AM 23.0 °F 8.0 °F 17.1 °F 78% 29.86 in 10.0 mi NW 20.7 mph 28.8 mph 0.00 in   Overcast
7:53 AM 21.9 °F 6.5 °F 15.1 °F 75% 29.91 in 10.0 mi NNW 20.7 mph 29.9 mph 0.00 in   Overcast
8:53 AM 19.9 °F 6.2 °F 12.0 °F 71% 29.96 in 10.0 mi NNW 15.0 mph 25.3 mph N/A   Mostly Cloudy
9:53 AM 19.9 °F 6.7 °F 10.9 °F 68% 30.00 in 10.0 mi NW 13.8 mph 26.5 mph 0.00 in   Mostly Cloudy
10:07 AM 19.9 °F 4.8 °F 10.9 °F 68% 29.96 in 10.0 mi NNW 18.4 mph 25.3 mph N/A   Scattered Clouds
10:53 AM 19.9 °F 5.2 °F 10.9 °F 68% 30.04 in 10.0 mi NNW 17.3 mph 26.5 mph N/A   Scattered Clouds
11:09 AM 19.9 °F 5.7 °F 10.9 °F 68% 30.00 in 10.0 mi NNW 16.1 mph 25.3 mph N/A   Mostly Cloudy
11:53 AM 21.9 °F 7.3 °F 10.9 °F 63% 30.06 in 10.0 mi North 18.4 mph 27.6 mph 0.00 in   Mostly Cloudy
12:53 PM 21.0 °F 6.6 °F 10.9 °F 65% 30.09 in 10.0 mi WNW 17.3 mph 25.3 mph 0.00 in   Overcast
1:53 PM 19.9 °F 7.9 °F 10.9 °F 68% 30.13 in 9.0 mi NW 11.5 mph - 0.00 in Snow Light Snow
2:53 PM 21.0 °F 7.6 °F 10.9 °F 65% 30.14 in 9.0 mi NW 15.0 mph 23.0 mph 0.00 in   Overcast
3:53 PM 21.0 °F 7.1 °F 10.0 °F 63% 30.15 in 10.0 mi WNW 16.1 mph 20.7 mph 0.00 in   Overcast
4:32 PM 19.9 °F 7.9 °F 9.0 °F 62% 30.12 in 10.0 mi NNW 11.5 mph 21.9 mph N/A   Scattered Clouds
4:53 PM 19.9 °F 5.7 °F 8.1 °F 60% 30.19 in 10.0 mi NNW 16.1 mph - N/A   Clear
5:53 PM 19.0 °F 4.5 °F 7.0 °F 59% 30.22 in 10.0 mi NNW 16.1 mph - N/A   Partly Cloudy
6:28 PM 18.0 °F 3.6 °F 7.0 °F 62% 30.18 in 10.0 mi NW 15.0 mph - N/A   Mostly Cloudy
6:35 PM 17.1 °F 2.5 °F 6.1 °F 62% 30.19 in 10.0 mi WNW 15.0 mph 21.9 mph N/A   Scattered Clouds
6:53 PM 17.1 °F 4.3 °F 6.1 °F 62% 30.26 in 10.0 mi NW 11.5 mph - N/A   Mostly Cloudy
7:26 PM 15.1 °F 5.2 °F 5.0 °F 64% 30.22 in 10.0 mi NNW 6.9 mph - N/A   Scattered Clouds
7:42 PM 14.0 °F 0.5 °F 5.0 °F 67% 30.22 in 10.0 mi NW 11.5 mph 20.7 mph N/A   Mostly Cloudy
7:53 PM 14.0 °F -0.8 °F 3.9 °F 64% 30.30 in 10.0 mi NNW 13.8 mph - N/A   Scattered Clouds
8:02 PM 14.0 °F 1.2 °F 3.9 °F 64% 30.23 in 10.0 mi NNW 10.4 mph - N/A   Mostly Cloudy
8:39 PM 12.9 °F -1.6 °F 3.9 °F 67% 30.24 in 10.0 mi NW 12.7 mph - N/A   Partly Cloudy
8:53 PM 12.0 °F -3.4 °F 3.9 °F 70% 30.32 in 10.0 mi NNW 13.8 mph - N/A   Clear
9:53 PM 10.9 °F -1.8 °F 3.0 °F 70% 30.34 in 10.0 mi NNW 9.2 mph - N/A   Clear
10:53 PM 10.0 °F -0.9 °F 1.9 °F 70% 30.36 in 10.0 mi North 6.9 mph - N/A   Clear
11:53 PM 8.1 °F -6.2 °F -2.0 °F 64% 30.38 in 10.0 mi North 10.4 mph - N/A   Clear